TimeMST,TemperatureF,Dew PointF,Humidity,Sea Level PressureIn,VisibilityMPH,Wind Direction,Wind SpeedMPH,Gust SpeedMPH,PrecipitationIn,Events,Conditions,WindDirDegrees,DateUTC
12:53 AM,15.1,10.9,84,30.34,10.0,East,3.5,-,N/A,,Clear,80,2013-01-31 07:53:00
1:53 AM,14.0,10.0,84,30.34,10.0,ENE,4.6,-,N/A,,Clear,70,2013-01-31 08:53:00
2:53 AM,12.9,10.0,88,30.34,10.0,NE,6.9,-,N/A,,Clear,40,2013-01-31 09:53:00
3:53 AM,10.9,8.1,88,30.34,10.0,NE,4.6,-,N/A,,Clear,50,2013-01-31 10:53:00
4:53 AM,10.9,9.0,92,30.36,10.0,NE,3.5,-,N/A,,Clear,40,2013-01-31 11:53:00
5:53 AM,10.9,7.0,84,30.38,10.0,East,10.4,-,N/A,,Clear,90,2013-01-31 12:53:00
6:53 AM,12.9,9.0,84,30.38,10.0,ESE,6.9,-,N/A,,Clear,120,2013-01-31 13:53:00
7:53 AM,14.0,9.0,80,30.40,10.0,ENE,4.6,-,N/A,,Clear,60,2013-01-31 14:53:00
8:53 AM,17.1,12.0,81,30.42,10.0,East,4.6,-,N/A,,Clear,90,2013-01-31 15:53:00
9:53 AM,24.1,16.0,71,30.40,10.0,ENE,3.5,-,N/A,,Clear,60,2013-01-31 16:53:00
10:53 AM,26.1,16.0,66,30.40,10.0,East,11.5,-,N/A,,Clear,90,2013-01-31 17:53:00
11:53 AM,32.0,19.0,59,30.40,10.0,East,5.8,-,N/A,,Clear,80,2013-01-31 18:53:00
12:53 PM,32.0,21.0,64,30.39,10.0,East,8.1,-,N/A,,Clear,90,2013-01-31 19:53:00
1:53 PM,34.0,21.9,61,30.36,10.0,NE,6.9,-,N/A,,Clear,50,2013-01-31 20:53:00
2:53 PM,37.0,21.0,52,30.35,10.0,ENE,3.5,-,N/A,,Clear,70,2013-01-31 21:53:00
3:53 PM,37.9,23.0,55,30.36,10.0,East,5.8,-,N/A,,Clear,100,2013-01-31 22:53:00
4:53 PM,37.0,23.0,57,30.38,10.0,East,5.8,-,N/A,,Clear,100,2013-01-31 23:53:00
5:53 PM,33.1,23.0,66,30.42,10.0,ENE,5.8,-,N/A,,Clear,70,2013-02-01 00:53:00
6:53 PM,32.0,23.0,69,30.42,10.0,SSW,5.8,-,N/A,,Clear,210,2013-02-01 01:53:00
7:53 PM,24.1,19.9,84,30.45,10.0,NE,4.6,-,N/A,,Clear,50,2013-02-01 02:53:00
8:53 PM,25.0,21.0,85,30.43,10.0,Calm,Calm,-,N/A,,Clear,0,2013-02-01 03:53:00
9:53 PM,25.0,21.0,85,30.39,10.0,Calm,Calm,-,N/A,,Clear,0,2013-02-01 04:53:00
11:53 PM,21.0,17.1,85,30.39,10.0,NNE,3.5,-,N/A,,Clear,20,2013-02-01 06:53:00